Weather in Lord Howe Island

Australia     31°31′37″S   159°04′15″E
temp.,
°C
wind,
m/s
gust,
m/s
humid.,
%
clouds,
%
prec.,
mm/h
press.,
hPa
HPBL,
m
17 april, sat
sat1701:00+21sse876724 0.1 10191118
04:00+20sse776598 0.1 10191105
07:00+20se7664100 0.1 10211036
10:00+21sse5454100 0.1 10211382
13:00+20se65585 0.0 10191148
16:00+20ese5558100 0.0 10181087
19:00+20ese776097 0.0 10191362
22:00+20e9862100 0.0 10191602
18 april, sun
sun1801:00+19e101172100 0.6 10161189
04:00+19e91078100 4.6 1016890
07:00+18ese111184100 4.3 1016799
10:00+19e131384100 6.3 1014694
13:00+20ene998598 1.3 1011778
16:00+22n787582 4.1 1010933
19:00+21n67764 3.8 1011728
22:00+20s877720 7.5 1010528
19 april, mon
mon1901:00+20s12127990 0.5 1009908
04:00+20s14147317 0.8 10091277
07:00+19ssw131375100 1.3 10121342
10:00+20sw12126292 2.2 10121698
13:00+20sw1213600 0.0 10111835
16:00+21sw1314611 0.0 10111607
19:00+21sw1213640 0.0 10131406
22:00+20sw10116895 0.4 10131299
20 april, tue
tue2001:00+21sw911647 0.1 10131440
04:00+21sw9106559 0.1 10131511
07:00+21sw896595 0.1 10151521
10:00+21wsw99690 0.1 10151214
13:00+21wsw99671 0.1 10141265
16:00+21wsw886814 0.2 10141199
19:00+21wsw6663100 0.0 10151130
22:00+21w566183 0.0 10151271
21 april, wed
wed2101:00+21wnw5764100 0.1 10141266
04:00+21nw8866100 0.2 10131254
07:00+22nw89675 0.3 10131290
10:00+21nw101272100 1.7 10121155
13:00+19nw91074100 6.1 1009528
16:00+22wsw912630 6.9 10091616
19:00+22sw78520 0.0 10111353
22:00+21ssw34520 0.0 10121084